,,PressureMeas_1m,,PRMeasQMR101_1,,RHStat155_1m_1,,SRMeasQMS101R_1m,,TAStat155_1m_1,,GenWind_1,,GenWind_1,
2018-09-26, 00:00:06,VALID,918.341,VALID,0.0,VALID,99.137,VALID,-0.021,VALID,20.204,VALID,87.0,VALID,0.0,
2018-09-26, 00:01:06,VALID,918.344,VALID,0.0,VALID,99.134,VALID,-0.015,VALID,20.211,VALID,85.0,VALID,0.0,
2018-09-26, 00:02:06,VALID,918.348,VALID,0.0,VALID,99.129,VALID,0.005,VALID,20.216,VALID,81.0,VALID,0.0,
2018-09-26, 00:03:06,VALID,918.342,VALID,0.0,VALID,99.147,VALID,0.005,VALID,20.22,VALID,81.0,VALID,0.0,
2018-09-26, 00:04:06,VALID,918.33,VALID,0.0,VALID,99.158,VALID,0.01,VALID,20.237,VALID,85.0,VALID,0.0,
2018-09-26, 00:05:06,VALID,918.308,VALID,0.0,VALID,99.16,VALID,-0.008,VALID,20.258,INVALID,360.0,VALID,0.0,
2018-09-26, 00:06:06,VALID,918.282,VALID,0.0,VALID,99.151,VALID,-0.006,VALID,20.231,INVALID,360.0,VALID,0.0,
2018-09-26, 00:07:06,VALID,918.274,VALID,0.0,VALID,99.132,VALID,-0.012,VALID,20.201,INVALID,360.0,VALID,0.0,
2018-09-26, 00:08:06,VALID,918.278,VALID,0.0,VALID,99.142,VALID,-0.008,VALID,20.201,INVALID,360.0,VALID,0.0,
2018-09-26, 00:09:06,VALID,918.277,VALID,0.0,VALID,99.143,VALID,-0.034,VALID,20.212,INVALID,360.0,VALID,0.0,
2018-09-26, 00:10:06,VALID,918.266,VALID,0.0,VALID,99.156,VALID,-0.015,VALID,20.227,INVALID,360.0,VALID,0.0,
2018-09-26, 00:11:06,VALID,918.27,VALID,0.0,VALID,99.148,VALID,-0.022,VALID,20.237,VALID,93.0,VALID,0.0,
2018-09-26, 00:12:06,VALID,918.273,VALID,0.0,VALID,99.162,VALID,-0.013,VALID,20.271,VALID,87.0,VALID,0.0,
2018-09-26, 00:13:06,VALID,918.251,VALID,0.0,VALID,99.134,VALID,-0.028,VALID,20.262,VALID,87.0,VALID,0.0,
2018-09-26, 00:14:06,VALID,918.219,VALID,0.0,VALID,99.132,VALID,-0.0,VALID,20.234,VALID,106.0,VALID,0.0,
2018-09-26, 00:15:06,VALID,918.193,VALID,0.0,VALID,99.145,VALID,-0.008,VALID,20.235,INVALID,360.0,VALID,0.0,
2018-09-26, 00:16:06,VALID,918.143,VALID,0.0,VALID,99.146,VALID,0.0,VALID,20.233,INVALID,360.0,VALID,0.0,
2018-09-26, 00:17:06,VALID,918.129,VALID,0.0,VALID,99.151,VALID,-0.01,VALID,20.231,INVALID,360.0,VALID,0.0,
2018-09-26, 00:18:06,VALID,918.107,VALID,0.0,VALID,99.13,VALID,-0.003,VALID,20.225,INVALID,360.0,VALID,0.0,
2018-09-26, 00:19:06,VALID,918.102,VALID,0.0,VALID,99.138,VALID,-0.027,VALID,20.223,INVALID,360.0,VALID,0.0,
2018-09-26, 00:20:06,VALID,918.099,VALID,0.0,VALID,99.142,VALID,-0.022,VALID,20.249,INVALID,360.0,VALID,0.0,
2018-09-26, 00:21:06,VALID,918.094,VALID,0.0,VALID,99.147,VALID,-0.02,VALID,20.299,INVALID,360.0,VALID,0.0,
2018-09-26, 00:22:06,VALID,918.106,VALID,0.0,VALID,99.17,VALID,-0.024,VALID,20.348,INVALID,360.0,VALID,0.0,
2018-09-26, 00:23:06,VALID,918.106,VALID,0.0,VALID,99.165,VALID,-0.015,VALID,20.379,INVALID,360.0,VALID,0.0,
2018-09-26, 00:24:06,VALID,918.121,VALID,0.0,VALID,99.166,VALID,-0.027,VALID,20.368,INVALID,360.0,VALID,0.0,
2018-09-26, 00:25:06,VALID,918.128,VALID,0.0,VALID,99.158,VALID,-0.019,VALID,20.352,INVALID,360.0,VALID,0.0,
2018-09-26, 00:26:06,VALID,918.122,VALID,0.0,VALID,99.136,VALID,-0.021,VALID,20.344,INVALID,360.0,VALID,0.0,
2018-09-26, 00:27:06,VALID,918.11,VALID,0.0,VALID,99.17,VALID,-0.009,VALID,20.378,INVALID,360.0,VALID,0.0,
2018-09-26, 00:28:06,VALID,918.1,VALID,0.0,VALID,99.163,VALID,0.009,VALID,20.408,VALID,267.0,VALID,0.0,
2018-09-26, 00:29:06,VALID,918.093,VALID,0.0,VALID,99.163,VALID,-0.007,VALID,20.417,VALID,267.0,VALID,0.0,
2018-09-26, 00:30:06,VALID,918.088,VALID,0.0,VALID,99.144,VALID,-0.021,VALID,20.417,VALID,267.0,VALID,0.0,
2018-09-26, 00:31:06,VALID,918.077,VALID,0.0,VALID,99.153,VALID,-0.022,VALID,20.433,VALID,267.0,VALID,0.0,
2018-09-26, 00:32:06,VALID,918.096,VALID,0.0,VALID,99.166,VALID,-0.016,VALID,20.466,VALID,267.0,VALID,0.0,
2018-09-26, 00:33:06,VALID,918.091,VALID,0.0,VALID,99.142,VALID,-0.004,VALID,20.469,VALID,267.0,VALID,0.0,
2018-09-26, 00:34:06,VALID,918.061,VALID,0.0,VALID,99.121,VALID,-0.033,VALID,20.438,VALID,267.0,VALID,0.0,
2018-09-26, 00:35:06,VALID,918.053,VALID,0.0,VALID,99.107,VALID,-0.016,VALID,20.396,VALID,267.0,VALID,0.0,
2018-09-26, 00:36:06,VALID,918.035,VALID,0.0,VALID,99.12,VALID,-0.004,VALID,20.419,VALID,268.0,VALID,0.0,
2018-09-26, 00:37:06,VALID,918.023,VALID,0.0,VALID,99.155,VALID,-0.003,VALID,20.445,VALID,268.0,VALID,0.0,
2018-09-26, 00:38:06,VALID,918.015,VALID,0.0,VALID,99.155,VALID,-0.04,VALID,20.445,VALID,268.0,VALID,0.0,
2018-09-26, 00:39:06,VALID,918.001,VALID,0.0,VALID,99.087,VALID,-0.034,VALID,20.378,VALID,268.0,VALID,0.0,
2018-09-26, 00:40:06,VALID,917.992,VALID,0.0,VALID,99.098,VALID,-0.046,VALID,20.359,VALID,268.0,VALID,0.0,
2018-09-26, 00:41:06,VALID,917.967,VALID,0.0,VALID,99.137,VALID,-0.052,VALID,20.378,VALID,268.0,VALID,0.0,
2018-09-26, 00:42:06,VALID,917.93,VALID,0.0,VALID,99.126,VALID,-0.057,VALID,20.361,VALID,268.0,VALID,0.0,
2018-09-26, 00:43:06,VALID,917.93,VALID,0.0,VALID,99.113,VALID,-0.056,VALID,20.347,VALID,268.0,VALID,0.0,
2018-09-26, 00:44:06,VALID,917.904,VALID,0.0,VALID,99.113,VALID,-0.051,VALID,20.326,VALID,139.0,VALID,0.0,
2018-09-26, 00:45:06,VALID,917.875,VALID,0.0,VALID,99.114,VALID,-0.031,VALID,20.331,VALID,151.0,VALID,0.0,
2018-09-26, 00:46:06,VALID,917.875,VALID,0.0,VALID,99.151,VALID,-0.032,VALID,20.373,VALID,151.0,VALID,0.0,
2018-09-26, 00:47:06,VALID,917.841,VALID,0.0,VALID,99.126,VALID,-0.041,VALID,20.371,VALID,151.0,VALID,0.0,
2018-09-26, 00:48:06,VALID,917.839,VALID,0.0,VALID,99.142,VALID,-0.056,VALID,20.379,VALID,151.0,VALID,0.0,
2018-09-26, 00:49:06,VALID,917.795,VALID,0.0,VALID,99.131,VALID,-0.041,VALID,20.381,VALID,152.0,VALID,0.0,
2018-09-26, 00:50:06,VALID,917.785,VALID,0.0,VALID,99.123,VALID,-0.034,VALID,20.371,VALID,151.0,VALID,0.0,
2018-09-26, 00:51:06,VALID,917.74,VALID,0.0,VALID,99.132,VALID,-0.031,VALID,20.378,VALID,151.0,VALID,0.0,
2018-09-26, 00:52:06,VALID,917.69,VALID,0.0,VALID,99.131,VALID,-0.038,VALID,20.389,VALID,151.0,VALID,0.0,
2018-09-26, 00:53:06,VALID,917.654,VALID,0.0,VALID,99.148,VALID,0.009,VALID,20.398,VALID,151.0,VALID,0.0,
2018-09-26, 00:54:06,VALID,917.643,VALID,0.0,VALID,99.133,VALID,0.014,VALID,20.385,VALID,151.0,VALID,0.0,
2018-09-26, 00:55:06,VALID,917.614,VALID,0.0,VALID,99.13,VALID,0.022,VALID,20.391,VALID,151.0,VALID,0.0,
2018-09-26, 00:56:06,VALID,917.627,VALID,0.0,VALID,99.135,VALID,0.015,VALID,20.407,VALID,151.0,VALID,0.0,
2018-09-26, 00:57:06,VALID,917.621,VALID,0.0,VALID,99.152,VALID,0.011,VALID,20.458,VALID,264.0,VALID,0.0,
2018-09-26, 00:58:06,VALID,917.62,VALID,0.0,VALID,99.131,VALID,0.012,VALID,20.441,VALID,329.0,VALID,0.0,
2018-09-26, 00:59:06,VALID,917.637,VALID,0.0,VALID,99.075,VALID,-0.001,VALID,20.366,VALID,347.0,VALID,0.0,
2018-09-26, 01:00:06,VALID,917.633,VALID,0.0,VALID,99.108,VALID,0.001,VALID,20.364,VALID,349.0,VALID,0.0,
2018-09-26, 01:01:06,VALID,917.608,VALID,0.0,VALID,99.126,VALID,0.026,VALID,20.397,VALID,336.0,VALID,0.0,
2018-09-26, 01:02:06,VALID,917.581,VALID,0.0,VALID,99.153,VALID,0.015,VALID,20.399,VALID,334.0,VALID,0.0,
2018-09-26, 01:03:06,VALID,917.568,VALID,0.0,VALID,99.11,VALID,0.012,VALID,20.386,VALID,346.0,VALID,0.0,
2018-09-26, 01:04:06,VALID,917.542,VALID,0.0,VALID,99.126,VALID,0.011,VALID,20.386,VALID,332.0,VALID,0.0,
2018-09-26, 01:05:07,VALID,917.517,VALID,0.0,VALID,99.126,VALID,0.014,VALID,20.349,VALID,352.0,VALID,0.0,
2018-09-26, 01:06:07,VALID,917.478,VALID,0.0,VALID,99.137,VALID,0.02,VALID,20.361,VALID,346.0,VALID,0.0,
2018-09-26, 01:07:07,VALID,917.479,VALID,0.0,VALID,99.162,VALID,0.009,VALID,20.398,VALID,320.0,VALID,0.0,
2018-09-26, 01:08:07,VALID,917.472,VALID,0.0,VALID,99.114,VALID,0.002,VALID,20.343,VALID,341.0,VALID,0.0,
2018-09-26, 01:09:07,VALID,917.463,VALID,0.0,VALID,99.095,VALID,0.02,VALID,20.296,VALID,330.0,VALID,0.0,
2018-09-26, 01:10:07,VALID,917.457,VALID,0.0,VALID,99.112,VALID,0.008,VALID,20.315,VALID,312.0,VALID,0.0,
2018-09-26, 01:11:07,VALID,917.433,VALID,0.0,VALID,99.139,VALID,0.012,VALID,20.313,VALID,314.0,VALID,0.0,
2018-09-26, 01:12:07,VALID,917.399,VALID,0.0,VALID,99.12,VALID,-0.012,VALID,20.313,VALID,316.0,VALID,0.0,
2018-09-26, 01:13:07,VALID,917.393,VALID,0.0,VALID,99.131,VALID,0.017,VALID,20.315,VALID,330.0,VALID,0.0,
2018-09-26, 01:14:07,VALID,917.375,VALID,0.0,VALID,99.116,VALID,0.017,VALID,20.285,VALID,345.0,VALID,0.0,
2018-09-26, 01:15:07,VALID,917.378,VALID,0.0,VALID,99.126,VALID,0.02,VALID,20.297,VALID,343.0,VALID,0.0,
2018-09-26, 01:16:07,VALID,917.387,VALID,0.0,VALID,99.182,VALID,0.022,VALID,20.331,VALID,1.0,VALID,0.0,
2018-09-26, 01:17:07,VALID,917.37,VALID,0.0,VALID,99.109,VALID,0.021,VALID,20.281,VALID,348.0,VALID,0.0,
2018-09-26, 01:18:07,VALID,917.387,VALID,0.0,VALID,99.135,VALID,0.02,VALID,20.263,VALID,8.0,VALID,0.0,
2018-09-26, 01:19:07,VALID,917.365,VALID,0.0,VALID,99.118,VALID,0.018,VALID,20.268,VALID,21.0,VALID,0.0,
2018-09-26, 01:20:07,VALID,917.352,VALID,0.0,VALID,99.14,VALID,0.027,VALID,20.28,VALID,44.0,VALID,0.0,
2018-09-26, 01:21:07,VALID,917.332,VALID,0.0,VALID,99.158,VALID,0.023,VALID,20.299,VALID,44.0,VALID,0.0,
2018-09-26, 01:22:07,VALID,917.33,VALID,0.0,VALID,99.148,VALID,0.016,VALID,20.282,VALID,86.0,VALID,0.0,
2018-09-26, 01:23:07,VALID,917.313,VALID,0.0,VALID,99.136,VALID,-0.022,VALID,20.257,VALID,99.0,VALID,0.0,
2018-09-26, 01:24:07,VALID,917.3,VALID,0.0,VALID,99.134,VALID,-0.002,VALID,20.255,VALID,116.0,VALID,0.0,
2018-09-26, 01:25:07,VALID,917.292,VALID,0.0,VALID,99.135,VALID,-0.007,VALID,20.261,VALID,116.0,VALID,0.0,
2018-09-26, 01:26:07,VALID,917.28,VALID,0.0,VALID,99.158,VALID,-0.019,VALID,20.28,VALID,116.0,VALID,0.0,
2018-09-26, 01:27:07,VALID,917.268,VALID,0.0,VALID,99.163,VALID,-0.023,VALID,20.314,VALID,116.0,VALID,0.0,
2018-09-26, 01:28:07,VALID,917.257,VALID,0.0,VALID,99.164,VALID,-0.042,VALID,20.328,VALID,116.0,VALID,0.0,
2018-09-26, 01:29:07,VALID,917.25,VALID,0.0,VALID,99.16,VALID,-0.028,VALID,20.32,VALID,116.0,VALID,0.0,
2018-09-26, 01:30:07,VALID,917.236,VALID,0.0,VALID,99.131,VALID,-0.03,VALID,20.286,VALID,116.0,VALID,0.0,
2018-09-26, 01:31:07,VALID,917.239,VALID,0.0,VALID,99.14,VALID,-0.043,VALID,20.275,VALID,116.0,VALID,0.0,
2018-09-26, 01:32:07,VALID,917.198,VALID,0.0,VALID,99.181,VALID,-0.016,VALID,20.294,VALID,116.0,VALID,0.0,
2018-09-26, 01:33:07,VALID,917.177,VALID,0.0,VALID,99.137,VALID,-0.005,VALID,20.281,VALID,116.0,VALID,0.0,
2018-09-26, 01:34:07,VALID,917.165,VALID,0.0,VALID,99.149,VALID,-0.031,VALID,20.29,VALID,116.0,VALID,0.0,
2018-09-26, 01:35:07,VALID,917.156,VALID,0.0,VALID,99.16,VALID,0.005,VALID,20.294,VALID,116.0,VALID,0.0,
2018-09-26, 01:36:07,VALID,917.152,VALID,0.0,VALID,99.142,VALID,-0.015,VALID,20.286,VALID,116.0,VALID,0.0,
2018-09-26, 01:37:07,VALID,917.161,VALID,0.0,VALID,99.165,VALID,-0.013,VALID,20.323,VALID,116.0,VALID,0.0,
2018-09-26, 01:38:07,VALID,917.162,VALID,0.0,VALID,99.176,VALID,-0.002,VALID,20.345,VALID,88.0,VALID,0.0,
2018-09-26, 01:39:07,VALID,917.177,VALID,0.0,VALID,99.12,VALID,0.0,VALID,20.287,VALID,60.0,VALID,0.0,
2018-09-26, 01:40:07,VALID,917.137,VALID,0.0,VALID,99.136,VALID,0.007,VALID,20.296,VALID,60.0,VALID,0.0,
2018-09-26, 01:41:07,VALID,917.146,VALID,0.0,VALID,99.162,VALID,0.018,VALID,20.324,VALID,60.0,VALID,0.0,
2018-09-26, 01:42:07,VALID,917.136,VALID,0.0,VALID,99.165,VALID,0.008,VALID,20.324,VALID,27.0,VALID,0.0,
2018-09-26, 01:43:07,VALID,917.12,VALID,0.0,VALID,99.118,VALID,0.017,VALID,20.265,VALID,1.0,VALID,0.0,
2018-09-26, 01:44:07,VALID,917.131,VALID,0.0,VALID,99.12,VALID,0.019,VALID,20.238,VALID,345.0,VALID,0.0,
2018-09-26, 01:45:07,VALID,917.108,VALID,0.0,VALID,99.147,VALID,0.007,VALID,20.236,VALID,337.0,VALID,0.0,
2018-09-26, 01:46:07,VALID,917.092,VALID,0.0,VALID,99.16,VALID,0.005,VALID,20.257,VALID,332.0,VALID,0.0,
2018-09-26, 01:47:07,VALID,917.102,VALID,0.0,VALID,99.159,VALID,-0.01,VALID,20.289,VALID,326.0,VALID,0.0,
2018-09-26, 01:48:07,VALID,917.091,VALID,0.0,VALID,99.168,VALID,-0.014,VALID,20.297,VALID,326.0,VALID,0.0,
2018-09-26, 01:49:07,VALID,917.095,VALID,0.0,VALID,99.142,VALID,-0.006,VALID,20.274,VALID,327.0,VALID,0.0,
2018-09-26, 01:50:07,VALID,917.09,VALID,0.0,VALID,99.168,VALID,0.008,VALID,20.273,VALID,330.0,VALID,0.0,
2018-09-26, 01:51:07,VALID,917.081,VALID,0.0,VALID,99.157,VALID,0.004,VALID,20.27,VALID,331.0,VALID,0.0,
2018-09-26, 01:52:07,VALID,917.06,VALID,0.0,VALID,99.167,VALID,0.003,VALID,20.304,VALID,331.0,VALID,0.0,
2018-09-26, 01:53:07,VALID,917.054,VALID,0.0,VALID,99.205,VALID,-0.04,VALID,20.357,VALID,331.0,VALID,0.0,
2018-09-26, 01:54:07,VALID,917.04,VALID,0.0,VALID,99.201,VALID,-0.06,VALID,20.383,VALID,331.0,VALID,0.0,
2018-09-26, 01:55:07,VALID,917.034,VALID,0.0,VALID,99.162,VALID,-0.065,VALID,20.356,VALID,331.0,VALID,0.0,
2018-09-26, 01:56:07,VALID,917.022,VALID,0.0,VALID,99.151,VALID,-0.054,VALID,20.35,VALID,331.0,VALID,0.0,
2018-09-26, 01:57:07,VALID,917.024,VALID,0.0,VALID,99.188,VALID,-0.058,VALID,20.405,VALID,331.0,VALID,0.0,
2018-09-26, 01:58:07,VALID,917.024,VALID,0.0,VALID,99.164,VALID,-0.051,VALID,20.398,VALID,334.0,VALID,0.0,
2018-09-26, 01:59:07,VALID,917.012,VALID,0.0,VALID,99.146,VALID,-0.062,VALID,20.366,VALID,349.0,VALID,0.0,
2018-09-26, 02:00:07,VALID,917.017,VALID,0.0,VALID,99.142,VALID,-0.035,VALID,20.304,VALID,352.0,VALID,0.0,
2018-09-26, 02:01:07,VALID,917.01,VALID,0.0,VALID,99.12,VALID,-0.041,VALID,20.259,VALID,351.0,VALID,0.0,
2018-09-26, 02:02:07,VALID,917.004,VALID,0.0,VALID,99.148,VALID,-0.057,VALID,20.267,VALID,337.0,VALID,0.0,
2018-09-26, 02:03:07,VALID,917.012,VALID,0.0,VALID,99.128,VALID,-0.066,VALID,20.254,VALID,328.0,VALID,0.0,
2018-09-26, 02:04:07,VALID,917.004,VALID,0.0,VALID,99.183,VALID,-0.048,VALID,20.296,VALID,358.0,VALID,0.0,
2018-09-26, 02:05:07,VALID,917.002,VALID,0.0,VALID,99.146,VALID,-0.058,VALID,20.247,VALID,336.0,VALID,0.0,
2018-09-26, 02:06:07,VALID,916.992,VALID,0.0,VALID,99.139,VALID,-0.046,VALID,20.226,VALID,310.0,VALID,0.0,
2018-09-26, 02:07:07,VALID,916.979,VALID,0.0,VALID,99.162,VALID,-0.041,VALID,20.249,VALID,299.0,VALID,0.0,
2018-09-26, 02:08:07,VALID,916.958,VALID,0.0,VALID,99.174,VALID,0.016,VALID,20.253,VALID,288.0,VALID,0.0,
2018-09-26, 02:09:07,VALID,916.953,VALID,0.0,VALID,99.164,VALID,0.031,VALID,20.234,VALID,293.0,VALID,0.0,
2018-09-26, 02:10:07,VALID,916.934,VALID,0.0,VALID,99.187,VALID,0.022,VALID,20.215,VALID,276.0,VALID,0.0,
2018-09-26, 02:11:07,VALID,916.921,VALID,0.0,VALID,99.169,VALID,0.032,VALID,20.215,VALID,272.0,VALID,0.0,
2018-09-26, 02:12:07,VALID,916.909,VALID,0.0,VALID,99.175,VALID,0.021,VALID,20.226,VALID,297.0,VALID,0.0,
2018-09-26, 02:13:07,VALID,916.894,VALID,0.0,VALID,99.176,VALID,0.02,VALID,20.237,VALID,290.0,VALID,0.0,
2018-09-26, 02:14:07,VALID,916.874,VALID,0.0,VALID,99.185,VALID,0.03,VALID,20.266,INVALID,360.0,VALID,0.0,
2018-09-26, 02:15:07,VALID,916.868,VALID,0.0,VALID,99.183,VALID,0.023,VALID,20.263,INVALID,360.0,VALID,0.0,
2018-09-26, 02:16:07,VALID,916.842,VALID,0.0,VALID,99.176,VALID,0.024,VALID,20.228,INVALID,360.0,VALID,0.0,
2018-09-26, 02:17:07,VALID,916.844,VALID,0.0,VALID,99.176,VALID,0.019,VALID,20.261,INVALID,360.0,VALID,0.0,
2018-09-26, 02:18:07,VALID,916.847,VALID,0.0,VALID,99.189,VALID,0.031,VALID,20.286,INVALID,360.0,VALID,0.0,
2018-09-26, 02:19:07,VALID,916.839,VALID,0.0,VALID,99.196,VALID,0.048,VALID,20.317,INVALID,360.0,VALID,0.0,
2018-09-26, 02:20:07,VALID,916.833,VALID,0.0,VALID,99.189,VALID,0.044,VALID,20.336,VALID,15.0,VALID,0.0,
2018-09-26, 02:21:07,VALID,916.832,VALID,0.0,VALID,99.165,VALID,0.038,VALID,20.305,VALID,356.0,VALID,0.0,
2018-09-26, 02:22:07,VALID,916.834,VALID,0.0,VALID,99.171,VALID,0.018,VALID,20.275,VALID,360.0,VALID,0.0,
2018-09-26, 02:23:07,VALID,916.838,VALID,0.0,VALID,99.158,VALID,0.003,VALID,20.263,VALID,349.0,VALID,0.0,
2018-09-26, 02:24:07,VALID,916.831,VALID,0.0,VALID,99.158,VALID,0.038,VALID,20.25,VALID,10.0,VALID,0.0,
2018-09-26, 02:25:07,VALID,916.827,VALID,0.0,VALID,99.184,VALID,0.018,VALID,20.266,VALID,9.0,VALID,0.0,
2018-09-26, 02:26:07,VALID,916.805,VALID,0.0,VALID,99.171,VALID,0.013,VALID,20.232,VALID,344.0,VALID,0.0,
2018-09-26, 02:27:07,VALID,916.798,VALID,0.0,VALID,99.109,VALID,0.02,VALID,20.16,VALID,327.0,VALID,0.0,
2018-09-26, 02:28:07,VALID,916.778,VALID,0.0,VALID,99.15,VALID,0.027,VALID,20.161,VALID,343.0,VALID,0.0,
2018-09-26, 02:29:07,VALID,916.763,VALID,0.0,VALID,99.13,VALID,0.029,VALID,20.12,VALID,1.0,VALID,0.0,
2018-09-26, 02:30:07,VALID,916.755,VALID,0.0,VALID,99.136,VALID,0.028,VALID,20.133,VALID,19.0,VALID,0.0,
2018-09-26, 02:31:07,VALID,916.751,VALID,0.0,VALID,99.182,VALID,0.032,VALID,20.159,VALID,334.0,VALID,0.0,
2018-09-26, 02:32:07,VALID,916.701,VALID,0.0,VALID,99.174,VALID,0.031,VALID,20.156,VALID,329.0,VALID,0.0,
2018-09-26, 02:33:07,VALID,916.694,VALID,0.0,VALID,99.167,VALID,0.018,VALID,20.169,VALID,318.0,VALID,0.0,
2018-09-26, 02:34:07,VALID,916.691,VALID,0.0,VALID,99.178,VALID,-0.014,VALID,20.173,VALID,329.0,VALID,0.0,
2018-09-26, 02:35:07,VALID,916.681,VALID,0.0,VALID,99.174,VALID,0.018,VALID,20.169,VALID,312.0,VALID,0.0,
2018-09-26, 02:36:07,VALID,916.687,VALID,0.0,VALID,99.173,VALID,0.035,VALID,20.184,VALID,352.0,VALID,0.0,
2018-09-26, 02:37:07,VALID,916.675,VALID,0.0,VALID,99.175,VALID,0.025,VALID,20.212,VALID,335.0,VALID,0.0,
2018-09-26, 02:38:07,VALID,916.664,VALID,0.0,VALID,99.18,VALID,-0.039,VALID,20.224,VALID,351.0,VALID,0.0,
2018-09-26, 02:39:07,VALID,916.664,VALID,0.0,VALID,99.178,VALID,-0.042,VALID,20.207,VALID,6.0,VALID,0.0,
2018-09-26, 02:40:07,VALID,916.659,VALID,0.0,VALID,99.132,VALID,-0.039,VALID,20.154,VALID,7.0,VALID,0.0,
2018-09-26, 02:41:07,VALID,916.667,VALID,0.0,VALID,99.144,VALID,-0.054,VALID,20.135,VALID,1.0,VALID,0.0,
2018-09-26, 02:42:07,VALID,916.648,VALID,0.0,VALID,99.168,VALID,-0.056,VALID,20.134,VALID,355.0,VALID,0.0,
2018-09-26, 02:43:07,VALID,916.627,VALID,0.0,VALID,99.176,VALID,-0.059,VALID,20.165,VALID,332.0,VALID,0.0,
2018-09-26, 02:44:07,VALID,916.636,VALID,0.0,VALID,99.173,VALID,-0.067,VALID,20.175,VALID,346.0,VALID,0.0,
2018-09-26, 02:45:07,VALID,916.604,VALID,0.0,VALID,99.173,VALID,-0.06,VALID,20.167,VALID,10.0,VALID,0.0,
2018-09-26, 02:46:07,VALID,916.604,VALID,0.0,VALID,99.16,VALID,-0.063,VALID,20.151,VALID,352.0,VALID,0.0,
2018-09-26, 02:47:07,VALID,916.573,VALID,0.0,VALID,99.146,VALID,-0.065,VALID,20.13,VALID,323.0,VALID,0.0,
2018-09-26, 02:48:07,VALID,916.564,VALID,0.0,VALID,99.164,VALID,-0.056,VALID,20.134,VALID,7.0,VALID,0.0,
2018-09-26, 02:49:07,VALID,916.581,VALID,0.0,VALID,99.168,VALID,-0.047,VALID,20.146,VALID,359.0,VALID,0.0,
2018-09-26, 02:50:07,VALID,916.591,VALID,0.0,VALID,99.18,VALID,-0.06,VALID,20.16,VALID,352.0,VALID,0.0,
2018-09-26, 02:51:07,VALID,916.568,VALID,0.0,VALID,99.163,VALID,-0.059,VALID,20.131,VALID,347.0,VALID,0.0,
2018-09-26, 02:52:07,VALID,916.578,VALID,0.0,VALID,99.134,VALID,-0.043,VALID,20.086,VALID,356.0,VALID,0.0,
2018-09-26, 02:53:07,VALID,916.562,VALID,0.0,VALID,99.167,VALID,-0.001,VALID,20.086,VALID,337.0,VALID,0.0,
2018-09-26, 02:54:07,VALID,916.578,VALID,0.0,VALID,99.167,VALID,-0.032,VALID,20.103,VALID,335.0,VALID,0.0,
2018-09-26, 02:55:07,VALID,916.592,VALID,0.0,VALID,99.188,VALID,-0.029,VALID,20.136,VALID,350.0,VALID,0.0,
2018-09-26, 02:56:07,VALID,916.612,VALID,0.0,VALID,99.163,VALID,-0.018,VALID,20.093,VALID,356.0,VALID,0.0,
2018-09-26, 02:57:07,VALID,916.646,VALID,0.0,VALID,99.166,VALID,-0.015,VALID,20.096,VALID,359.0,VALID,0.0,
2018-09-26, 02:58:07,VALID,916.658,VALID,0.0,VALID,99.156,VALID,-0.033,VALID,20.095,VALID,347.0,VALID,0.0,
2018-09-26, 02:59:07,VALID,916.669,VALID,0.0,VALID,99.162,VALID,-0.033,VALID,20.104,VALID,356.0,VALID,0.0,
2018-09-26, 03:00:07,VALID,916.661,VALID,0.0,VALID,99.143,VALID,-0.01,VALID,20.064,VALID,350.0,VALID,0.0,
2018-09-26, 03:01:07,VALID,916.67,VALID,0.0,VALID,99.14,VALID,0.001,VALID,20.042,VALID,350.0,VALID,0.0,
2018-09-26, 03:02:07,VALID,916.673,VALID,0.0,VALID,99.13,VALID,-0.023,VALID,20.043,VALID,323.0,VALID,0.0,
2018-09-26, 03:03:07,VALID,916.705,VALID,0.0,VALID,99.141,VALID,-0.016,VALID,20.044,VALID,325.0,VALID,0.0,
2018-09-26, 03:04:07,VALID,916.722,VALID,0.0,VALID,99.164,VALID,-0.019,VALID,20.063,VALID,317.0,VALID,0.0,
2018-09-26, 03:05:07,VALID,916.737,VALID,0.0,VALID,99.135,VALID,-0.004,VALID,20.057,VALID,299.0,VALID,0.0,
2018-09-26, 03:06:07,VALID,916.744,VALID,0.0,VALID,99.162,VALID,-0.016,VALID,20.061,VALID,307.0,VALID,0.0,
2018-09-26, 03:07:07,VALID,916.758,VALID,0.0,VALID,99.16,VALID,-0.013,VALID,20.09,VALID,297.0,VALID,0.0,
2018-09-26, 03:08:07,VALID,916.781,VALID,0.0,VALID,99.141,VALID,-0.049,VALID,20.081,VALID,282.0,VALID,0.0,
2018-09-26, 03:09:07,VALID,916.791,VALID,0.0,VALID,99.146,VALID,-0.037,VALID,20.083,VALID,258.0,VALID,0.0,
2018-09-26, 03:10:07,VALID,916.796,VALID,0.0,VALID,99.141,VALID,-0.025,VALID,20.106,VALID,261.0,VALID,0.0,
2018-09-26, 03:11:07,VALID,916.775,VALID,0.0,VALID,99.129,VALID,-0.042,VALID,20.07,VALID,297.0,VALID,0.0,
2018-09-26, 03:12:06,VALID,916.815,VALID,0.0,VALID,99.13,VALID,-0.041,VALID,20.034,VALID,315.0,VALID,0.0,
2018-09-26, 03:13:06,VALID,916.815,VALID,0.0,VALID,99.121,VALID,-0.042,VALID,20.011,VALID,333.0,VALID,0.0,
2018-09-26, 03:14:06,VALID,916.809,VALID,0.0,VALID,99.11,VALID,-0.038,VALID,20.009,VALID,332.0,VALID,0.0,
2018-09-26, 03:15:06,VALID,916.835,VALID,0.0,VALID,99.087,VALID,-0.046,VALID,20.002,VALID,334.0,VALID,0.0,
2018-09-26, 03:16:06,VALID,916.865,VALID,0.0,VALID,99.109,VALID,-0.037,VALID,20.013,VALID,341.0,VALID,0.0,
2018-09-26, 03:17:06,VALID,916.855,VALID,0.0,VALID,99.091,VALID,-0.036,VALID,19.987,VALID,352.0,VALID,0.0,
2018-09-26, 03:18:06,VALID,916.85,VALID,0.0,VALID,99.079,VALID,-0.039,VALID,19.975,VALID,341.0,VALID,0.0,
2018-09-26, 03:19:06,VALID,916.845,VALID,0.0,VALID,99.084,VALID,-0.05,VALID,19.977,VALID,341.0,VALID,0.0,
2018-09-26, 03:20:06,VALID,916.861,VALID,0.0,VALID,99.055,VALID,-0.053,VALID,19.943,VALID,335.0,VALID,0.0,
2018-09-26, 03:21:06,VALID,916.845,VALID,0.0,VALID,99.061,VALID,-0.057,VALID,19.923,VALID,335.0,VALID,0.0,
2018-09-26, 03:22:06,VALID,916.836,VALID,0.0,VALID,99.058,VALID,-0.027,VALID,19.926,VALID,336.0,VALID,0.0,
2018-09-26, 03:23:06,VALID,916.828,VALID,0.0,VALID,99.04,VALID,-0.005,VALID,19.903,VALID,347.0,VALID,0.0,
2018-09-26, 03:24:06,VALID,916.808,VALID,0.0,VALID,99.062,VALID,-0.015,VALID,19.913,VALID,328.0,VALID,0.0,
2018-09-26, 03:25:06,VALID,916.798,VALID,0.0,VALID,99.058,VALID,-0.027,VALID,19.905,VALID,320.0,VALID,0.0,
2018-09-26, 03:26:06,VALID,916.76,VALID,0.0,VALID,99.054,VALID,0.007,VALID,19.896,VALID,312.0,VALID,0.0,
2018-09-26, 03:27:06,VALID,916.76,VALID,0.0,VALID,99.044,VALID,-0.006,VALID,19.91,VALID,314.0,VALID,0.0,
2018-09-26, 03:28:06,VALID,916.764,VALID,0.0,VALID,99.075,VALID,-0.026,VALID,19.924,VALID,322.0,VALID,0.0,
2018-09-26, 03:29:06,VALID,916.762,VALID,0.0,VALID,99.026,VALID,-0.031,VALID,19.881,VALID,332.0,VALID,0.0,
2018-09-26, 03:30:06,VALID,916.744,VALID,0.0,VALID,99.005,VALID,-0.023,VALID,19.861,VALID,338.0,VALID,0.0,
2018-09-26, 03:31:06,VALID,916.729,VALID,0.0,VALID,98.999,VALID,-0.016,VALID,19.856,VALID,322.0,VALID,0.0,
2018-09-26, 03:32:06,VALID,916.724,VALID,0.0,VALID,99.019,VALID,-0.009,VALID,19.848,VALID,307.0,VALID,0.0,
2018-09-26, 03:33:06,VALID,916.732,VALID,0.0,VALID,99.005,VALID,-0.008,VALID,19.811,VALID,285.0,VALID,0.0,
2018-09-26, 03:34:06,VALID,916.719,VALID,0.0,VALID,98.991,VALID,-0.026,VALID,19.793,VALID,281.0,VALID,0.0,
2018-09-26, 03:35:06,VALID,916.746,VALID,0.0,VALID,98.982,VALID,-0.017,VALID,19.826,VALID,281.0,VALID,0.0,
2018-09-26, 03:36:06,VALID,916.729,VALID,0.0,VALID,98.994,VALID,-0.035,VALID,19.832,VALID,281.0,VALID,0.0,
2018-09-26, 03:37:06,VALID,916.73,VALID,0.0,VALID,98.999,VALID,-0.007,VALID,19.837,VALID,281.0,VALID,0.0,
2018-09-26, 03:38:06,VALID,916.733,VALID,0.0,VALID,99.008,VALID,-0.027,VALID,19.835,VALID,298.0,VALID,0.0,
2018-09-26, 03:39:06,VALID,916.731,VALID,0.0,VALID,98.994,VALID,-0.039,VALID,19.823,VALID,328.0,VALID,0.0,
2018-09-26, 03:40:06,VALID,916.731,VALID,0.0,VALID,98.973,VALID,-0.043,VALID,19.808,VALID,343.0,VALID,0.0,
2018-09-26, 03:41:06,VALID,916.74,VALID,0.0,VALID,98.944,VALID,-0.038,VALID,19.772,VALID,343.0,VALID,0.0,